Regional Weather Roundup
Issued by NWS Sioux Falls, SD

Home | Current Version | Previous Version | Text Only | Print | Product List | Glossary On
Versions: 1 2 3 4 5 6 7 8 9 10 11 12 13 14 15 16 17 18 19 20 21 22 23 24 25 26 27 28 29 30 31 32 33 34 35 36 37 38 39 40 41 42 43 44 45 46 47 48 49 50
000
ASUS43 KFSD 281302
RWRFSD

WEATHER ROUNDUP FOR SE SOUTH DAKOTA/SW MINNESOTA/NW IOWA
NATIONAL WEATHER SERVICE SIOUX FALLS SD
800 AM CDT FRI APR 28 2017

NOTE: "FAIR" INDICATES FEW OR NO CLOUDS BELOW 12,000 FEET WITH NO
SIGNIFICANT WEATHER AND OR OBSTRUCTIONS TO VISIBILITY.


SDZ038>040-050-052>070-281400-
SOUTHEAST SOUTH DAKOTA

CITY           SKY/WX    TMP DP  RH WIND       PRES   REMARKS
BROOKINGS      CLOUDY    33  28  81 N9        29.90R WCI  25
CHAMBERLAIN    CLOUDY    34  31  88 N6        29.89R WCI  29
HURON          CLOUDY    35  31  85 NE7       29.91R WCI  29
MADISON        FAIR      32  32 100 NE17      29.88R WCI  21
MITCHELL       PTSUNNY   30  27  88 N5        29.92R WCI  25
SIOUX FALLS    CLOUDY    31  28  89 CALM      29.90R
WINNER         FAIR      36  30  79 E5        29.85R
YANKTON        CLOUDY    34  28  80 NE7       29.87R WCI  28
$$

MNZ071-072-080-081-089-090-097-098-281400-
SOUTHWEST MINNESOTA

CITY           SKY/WX    TMP DP  RH WIND       PRES   REMARKS
FAIRMONT       CLOUDY    37  33  85 NW8       29.89R
JACKSON        CLOUDY    32  30  93 CALM      29.88R
MARSHALL       SUNNY     33  29  85 N10       29.92R WCI  25
MONTEVIDEO     SUNNY     34  28  80 N13       29.92R WCI  25
PIPESTONE      CLOUDY    34  27  75 NE15      29.85F WCI  24
REDWOOD FALLS  SUNNY     35  29  78 NW8       29.90R WCI  29
TRACY          SUNNY     34  31  88 N10       29.90R WCI  26
WINDOM         SUNNY     36  30  80 N12       29.88R
WORTHINGTON    CLOUDY    34  29  82 CALM      29.89R
$$

IAZ001>003-012>014-020>022-031-032-NEZ013-014-SDZ071-281400-
NORTHWEST IOWA

CITY           SKY/WX    TMP DP  RH WIND       PRES   REMARKS
CHEROKEE       CLOUDY    32  30  91 NE3       29.88R
DENISON        MIX PCPN  36  28  75 E12G18    29.87R
ESTHERVILLE    MOSUNNY   32  30  92 CALM      29.87R
LE MARS        CLOUDY    36  28  75 NE5       29.88R
ORANGE CITY    CLOUDY    32  30  93 E5        29.87R WCI  27
SHELDON        CLOUDY    32  28  86 CALM      29.87R
SIOUX CITY     CLOUDY    35  29  78 SE7       29.88R WCI  29
SPENCER        CLOUDY    30  27  88 CALM      29.88R
STORM LAKE     CLOUDY    32  28  86 E9        29.86R WCI  24
$$

ABBREVIATIONS USED IN REMARKS
   TC - TEMPERATURE IN CELSIUS
  WCI - WIND CHILL INDEX
   HX - HEAT INDEX
  VSB - VISIBILITY




USA.gov is the U.S. government's official web portal to all federal, state and local government web resources and services.